www.pogodaiklimat.ru

Погода и климат >> Архив погоды >> Узбекистан >> Хива


ПОГОДА в Хиве

  • Прогноз погоды в Хиве
  • Монитор погоды в Хиве

АРХИВ ПОГОДЫ в Хиве

Время (UTC), дата Ветер
(напр.,м/с)
 
Видим.   Явления Облачность Т
(С)
Тd
(С)
f
(%)
Тe
(С)
Тes
(С)
Комфортность P
(гПа)
Po
(гПа)
Тmin
(С)
Tmax
(С)
R
(мм)
R24
(мм)
S
(см)
18 16.08 З 1 н/о ясно +21.0 +14.9 68 +25 +25 комфорт 1014.2 1002.8 +29.4
21 16.08 С 1 н/о ясно +19.1 +12.9 67 +21 +21 комфорт 1013.8 1002.4
00 17.08 С 1 н/о ясно +17.5 +12.3 72 +19 +19 1013.6 1002.1
03 17.08 С 1 10 км ясно +19.4 +12.3 63 +22 +25 комфорт 1013.3 1001.9
06 17.08 В 1 10 км ясно +28.2 +13.6 41 +30 +46 жарко 1013.1 1002.0
09 17.08 В 1 10 км ясно +30.6 +10.8 29 +31 +49 жарко 1012.0 1001.0
12 17.08 СВ 1 10 км ясно +31.8 +11.8 29 +32 +38 жарко 1011.0 1000.0
15 17.08 С 1 10 км ясно +28.4 +16.5 48 +32 +32 душно 1010.9 999.9 +32.5
18 17.08 С 1 н/о ясно +21.6 +17.4 77 +26 +26 душно 1013.0 1001.6 +32.5
21 17.08 СВ 1 н/о ясно +21.0 +13.7 63 +25 +25 комфорт 1012.4 1001.0
00 18.08 С 1 н/о ясно +19.8 +13.6 67 +23 +23 комфорт 1013.5 1002.1
06 18.08 В 2 10 км ясно +31.1 +12.8 33 +32 +45 жарко 1015.2 1003.6
09 18.08 В 2 10 км ясно +32.6 +11.0 27 +32 +48 жарко 1014.6 1003.6
12 18.08 В 2 10 км ясно +33.3 +12.2 28 +34 +39 очень
жарко
1013.1 1002.2
15 18.08 В 1 10 км ясно +30.0 +12.3 34 +31 +31 жарко 1013.7 1002.6 +33.5
18 18.08 С 1 н/о ясно +23.8 +17.4 67 +28 +28 душно 1014.6 1003.3 +33.5
21 18.08 С 1 н/о ясно +21.4 +16.0 71 +25 +25 комфорт 1014.3 1002.9
00 19.08 С 1 н/о ясно +20.0 +13.7 67 +23 +23 комфорт 1017.0 1005.6
03 19.08 С 1 10 км ясно +21.5 +13.7 61 +24 +27 комфорт 1017.0 1005.6
06 19.08 СВ 1 10 км ясно +29.4 +13.7 38 +31 +46 жарко 1017.1 1006.0
09 19.08 СВ 1 10 км ясно +32.6 +13.4 31 +34 +52 опасность
солнечного
удара
1016.3 1005.3
12 19.08 С 1 10 км ясно +33.2 +17.7 40 +37 +44 очень
душно
1015.3 1004.4
15 19.08 С 1 10 км ясно +29.8 +18.7 51 +35 +35 очень
душно
1015.1 1004.0 +33.7
18 19.08 С 1 н/о ясно +24.4 +17.4 65 +28 +28 душно 1015.6 1004.3 +33.7
00 20.08 СВ 1 н/о ясно +20.4 +12.6 61 +24 +24 комфорт 1016.1 1004.7
03 20.08 В 1 10 км ясно +21.8 +12.3 55 +24 +27 комфорт 1017.0 1005.6
09 20.08 С 1 10 км ясно +33.5 +13.9 31 +35 +53 опасность
солнечного
удара
1017.2 1006.2
12 20.08 С 1 10 км ясно +35.3 +15.1 30 +37 +43 очень
душно
1015.3 1004.5
15 20.08 С 1 10 км ясно +31.0 +18.7 48 +36 +36 очень
душно
1014.8 1003.8 +35.8
18 20.08 С 1 н/о ясно +25.8 +17.5 60 +30 +30 душно 1014.8 1003.6 +25.8
21 20.08 С 1 н/о ясно +24.8 +16.7 61 +28 +28 жарко 1014.5 1003.2
00 21.08 С 1 н/о ясно +22.0 +15.0 64 +25 +25 комфорт 1013.7 1002.3
03 21.08 С 1 10 км ясно +22.6 +16.0 66 +27 +29 душно 1014.0 1002.7
06 21.08 С 1 10 км ясно +30.0 +17.7 48 +34 +50 очень
душно
1014.5 1003.4
09 21.08 С 1 10 км ясно +34.8 +14.7 30 +36 +54 опасность
солнечного
удара
1013.5 1002.6
12 21.08 С 1 10 км ясно +36.1 +15.5 29 +38 +44 очень
душно
1011.8 1001.0
15 21.08 З 1 10 км ясно +33.3 +18.1 41 +38 +38 очень
душно
1011.5 1000.6 +36.7
18 21.08 С 1 н/о ясно +28.0 +18.7 57 +33 +33 очень
душно
1011.6 1000.2 +36.7
21 21.08 С 1 н/о ясно +24.4 +15.9 59 +28 +28 душно 1010.5 999.3
00 22.08 С 1 н/о ясно +22.0 +17.1 74 +26 +26 душно 1011.7 1000.3
03 22.08 С 1 10 км ясно +23.6 +16.8 66 +27 +30 жарко 1011.8 1000.5
09 22.08 СВ 2 10 км ясно +36.3 +16.0 30 +38 +54 опасность
солнечного
удара
1011.4 1000.6
12 22.08 С 2 10 км 4/4 600 м
[Cu hum]
+37.0 +17.3 31 +40 +43 очень
душно
1009.7 999.0
15 22.08 СЗ 1 10 км 4/4 600 м
[Sc]
+31.7 +23.5 62 +43 +43 опасность
перегрева
1009.9 999.0 +38.3
18 22.08 С 1 н/о ясно +26.7 +20.2 68 +33 +33 очень
душно
1010.5 999.3 +38.3
00 23.08 С 1 н/о ясно +23.0 +16.6 67 +28 +28 душно 1010.5 999.3

 

Местоположение метеостанции Хива (Хорезмская область, Узбекистан): широта 41.40 долгота 60.38 высота над уровнем моря 95 м.

В архиве по умолчанию представлена погода в Хиве за последнюю неделю. Архивные данные за месяц целиком и за предыдущие месяцы, начиная с января 2011 года, Вы можете получить, выбрав интересующий диапазон дат из раскрывающегося списка и нажав кнопку "Ввод!".


*Определитесь, кто Вы:
робот инопланетянин человек

Внимание! Время в таблицах - всемирное. Для получения местного времени необходимо прибавить поправку, которая равна 5 ч.

Смотрите также архив погоды в соседних городах и на ближайших метеорологических станциях:

Погода в Ургенче (Хорезмская область, Узбекистан) (25 км)
Погода в Гурлене (Хорезмская область, Узбекистан) (50 км)
Погода в Дашогузе (Дашогузский велаят, Туркменистан) (61 км)
Погода в Тюя-Муюне (Лебапский велаят, Туркменистан) (88 км)
Погода в Тахиаташе (Каракалпакстан, Узбекистан) (129 км)
Погода в Нукусе (Каракалпакстан, Узбекистан) (133 км)
Погода в Тахтакупыре (Каракалпакстан, Узбекистан) (136 км)
Погода в Шах-Сенеме (Дашогузский велаят, Туркменистан) (140 км)
Погода в Кенеургенче (Дашогузский велаят, Туркменистан) (144 км)
Погода в Бузаубае (Хорезмская область, Узбекистан) (178 км)

Пояснения к столбцам:

Ветер - указаны скорость ветра в м/с - средняя за 10 мин, порывы в срок и между сроками (в фигурных скобках) и направление, откуда дует ветер: С - северный, СВ - северо-восточный, В - восточный, ЮВ - юго-восточный, Ю - южный, ЮЗ - юго-западный, З - западный, СЗ - северо-западный.
Видимость - горизонтальная дальность видимости в метрах или километрах. При видимости от 1 до 10 км при отсутствии осадков обычно наблюдается дымка, при ухудшении видимости до 1 км и менее - туман. В сухую погоду видимость может ухудшаться дымом, пылью или мглою.
Явления - указаны атмосферные явления, наблюдавшиеся в срок или в последний час перед сроком; фигурными скобками обозначены явления, наблюдавшиеся между сроками (за 1-3 часа до срока); квадратными скобками обозначены град или гололедные отложения с указанием их диаметра в мм.
Облачность - указаны через наклонную черту общая и нижняя облачность в баллах и высота нижней границы облаков в метрах; квадратными скобками обозначены формы облаков: Ci - перистые, Cs - перисто-слоистые, Cc - перисто-кучевые, Ac - высококучевые, As - высокослоистые, Sc - слоисто-кучевые, Ns - слоисто-дождевые, Cu - кучевые, Cb - кучево-дождевые. Подробнее классификацию облаков см. в Атласе облаков (PDF).
T - Температура воздуха - температура, измеренная на высоте 2 м над землей.
Td - Температура точки росы - температура, при понижении до которой содержащийся в воздухе водяной пар достигнет насыщения.
f - Относительная влажность воздуха - влажноcть воздуха, измеренная на высоте 2 м над землей.
Te - Эффективная температура - температура, которую ощущает одетый по сезону человек в тени. Характеристика душности погоды. При расчете учитывается влияние влажности воздуха и скорости ветра на теплоощущения человека.
Tes - Эффективная температура на солнце - температура, которую ощущает человек, с поправкой на солнечный нагрев. Характеристика знойности погоды. Зависит от высоты солнца над горизонтом, облачности и скорости ветра. Ночью, в пасмурную погоду, а также при ветре 12 м/с и более поправка равна нулю.
P - Атмосферное давление - приведенное к уровню моря атмосферное давление.
Po - Атмосферное давление - измеренное на уровне метеостанции атмосферное давление.
Tmin - Минимальная температура - минимум температуры воздуха на высоте 2 м над землей.
Tmax - Максимальная температура - максимум температуры воздуха на высоте 2 м над землей.
R - Количество осадков - Количество выпавших осадков за период времени, мм. При наведении курсора мыши на число - период времени, за который выпало указанное количество осадков.
R24 - Количество осадков - Количество выпавших осадков за 24 часа, мм.
S - Снежный покров - Высота снежного покрова, см. При наведении курсора мыши на число - состояние снежного покрова и степень покрытия местности в баллах.